CAPE
0 0 0 0 0 0 0 0 0 5 16 8 16 11 9 16 24 37 28 19 19 19 31 37 20 36 36
0 0 0 0 0 0 4 11 4 8 0 2 8 10 12 13 26 13 12 14 25 22 30 38 23 18 22
0 0 0 0 0 0 0 0 0 0 0 0 0 8 11 14 23 24 19 20 20 13 10 13 16 24 25
1 0 0 0 0 0 0 0 0 0 0 0 4 2 0 1 2 4 5 7 11 14 16 17 17 17 11
0 0 0 0 0 0 0 0 0 1 0 0 0 0 0 0 0 0 0 4 9 13 17 25 34 34 24
0 1 0 0 0 0 1 1 0 0 0 0 0 0 0 0 0 0 3 7 13 14 10 29 29 34 43
0 0 0 0 0 1 0 0 2 0 1 0 0 0 0 0 0 0 1 5 8 8 19 28 26 28 24
0 0 3 0 0 0 0 0 0 0 0 0 0 0 0 0 0 0 0 3 3 4 12 16 25 26 29
11 3 0 0 0 0 0 0 0 0 0 0 0 0 0 0 0 0 0 0 0 2 5 3 4 12 14
0 0 0 0 0 0 0 0 0 0 0 0 0 0 0 0 0 0 0 0 0 1 4 2 11 12 3
0 0 0 0 0 0 0 0 0 0 0 0 0 0 0 0 0 0 0 0 0 0 0 2 3 4 1
0 0 0 0 0 0 0 0 0 0 0 0 0 0 0 0 0 0 0 0 0 0 1 1 2 3 5
0 0 0 0 0 0 0 0 0 0 0 0 0 0 0 0 0 0 1 0 0 0 1 1 1 0 0
0 0 0 0 0 0 0 0 0 0 0 0 0 0 0 2 1 0 0 0 0 0 0 0 0 0 1
0 1 1 1 0 0 0 0 1 0 0 0 0 0 0 0 0 0 0 0 0 0 0 0 0 0 0
0 1 1 0 0 0 1 1 1 0 0 0 0 0 0 0 0 0 0 0 0 1 1 0 2 1 2
1 0 0 0 1 2 1 1 0 1 0 0 0 2 0 0 0 0 0 0 0 0 0 0 1 1 1
CIN
-0 -0 -0 -0 -0 -0 -0 -0 -0 -1 -1 -2 -4 -5 -5 -6 -5 -3 -4 -4 -4 -4 -3 -2 -2 -2 -2
-0 -0 -0 -0 -0 -0 -1 -1 -1 -0 -0 -3 -3 -4 -4 -4 -4 -2 -2 -3 -5 -3 -5 -3 -1 -3 -3
-0 -0 -0 -0 -0 -0 -0 -0 -0 -0 -0 -0 -1 -2 -4 -6 -5 -6 -4 -4 -3 -3 -3 -3 -3 -3 -2
-0 -1 -0 -0 -0 -0 -0 -0 -0 -0 -0 -2 -2 -1 -2 -1 -3 -3 -2 -3 -3 -4 -4 -4 -3 -2 -3
-0 -0 -0 -0 -0 -0 -0 -0 -0 -2 -0 -0 -0 -0 -0 -0 -0 -0 -0 -2 -2 -3 -4 -3 -2 -1 -2
-0 -0 -0 -0 -0 -0 -2 -0 -1 -0 -0 -0 -1 -0 -0 -0 -0 -0 -1 -1 -2 -3 -6 -2 -1 -2 -2
-0 -0 -0 -0 -1 -1 -0 -0 -0 -0 -1 -0 -0 -0 -0 -0 -0 -0 -1 -1 -2 -4 -2 -1 -1 -2 -2
-0 -1 -2 -2 -2 -1 -0 -0 -0 -0 -0 -0 -0 -0 -0 -0 -0 -0 -0 -1 -3 -3 -2 -2 -1 -2 -1
-1 -1 -0 -0 -1 -0 -0 -0 -0 -0 -0 -0 -0 -0 -0 -0 -0 -0 -0 -0 -0 -1 -2 -3 -3 -3 -2
-0 -0 -0 -0 -0 -0 -0 -0 -0 -0 -0 -0 -0 -0 -0 -0 -0 -0 -0 -0 -0 -1 -2 -1 -1 -0 -1
-0 -0 -0 -0 -0 -0 -0 -0 -0 -0 -0 -0 -0 -0 -0 -0 -0 -0 -0 -0 -0 -0 -0 -0 -0 -0 -0
-0 -0 -0 -0 -0 -0 -0 -0 -0 -0 -0 -0 -0 -0 -0 -0 -0 -0 -0 -0 -0 -0 -0 -0 -0 -0 -0
-0 -0 -0 -0 -0 -0 -0 -0 -0 -0 -0 -0 -0 -0 -0 -0 -0 -0 -0 -0 -0 -0 -0 -0 -0 -0 -0
-0 -0 -0 -0 -0 -0 -0 -0 -0 -0 -0 -0 -0 -0 -0 -0 -0 -0 -0 -0 -0 -0 -0 -0 -0 -0 -0
-0 -0 -0 -0 -0 -0 -0 -0 -0 -0 -0 -0 -0 -0 -0 -0 -0 -0 -0 -0 -0 -0 -0 -0 -0 -0 -0
-0 -0 -0 -0 -0 -0 -0 -0 -0 -0 -0 -0 -0 -0 -0 -0 -0 -0 -0 -0 -0 -0 -0 -0 -0 -0 -0
-0 -0 -0 -0 -0 -0 -0 -0 -0 -0 -0 -0 -0 -0 -0 -0 -0 -0 -0 -0 -0 -0 -0 -0 -0 -0 -0
Wind_Speed
58 57 57 56 54 49 47 47 45 47 46 51 52 55 52 51 53 54 54 54 54 55 54 55 57 56 57
60 60 57 54 52 50 45 42 44 42 44 43 40 41 44 43 47 52 54 54 56 56 53 54 55 57 57
58 53 52 49 47 45 45 43 38 37 38 36 32 28 26 27 37 43 49 54 57 57 55 55 53 52 53
50 48 44 44 44 48 45 40 40 37 28 23 24 26 28 29 34 37 45 54 56 56 54 54 55 55 56
46 46 45 46 43 40 35 25 32 28 23 24 24 25 25 22 21 24 26 27 39 52 53 53 50 50 54
43 40 36 38 30 21 21 24 24 35 28 25 27 26 25 25 22 21 23 24 35 45 46 43 41 40 40
30 29 28 21 21 21 24 27 24 25 26 25 29 24 25 26 20 25 29 25 34 38 40 39 37 35 34
27 24 16 22 20 21 20 20 20 24 22 25 25 21 20 17 22 26 23 24 28 32 35 37 36 35 36
22 18 24 17 19 17 18 19 21 24 22 21 21 20 18 18 12 12 17 26 31 31 29 28 27 27 28
28 20 17 19 19 20 18 18 19 21 22 23 20 21 24 8 9 17 14 17 26 30 26 23 24 21 21
23 19 24 24 22 21 19 18 16 18 18 15 17 14 11 12 15 12 14 15 15 15 15 17 19 19 19
24 28 27 24 22 22 17 18 14 15 15 12 10 10 9 15 18 12 15 14 13 13 14 15 15 17 20
32 31 30 27 23 24 21 19 16 13 11 8 6 7 8 11 12 15 17 17 12 12 14 12 11 12 14
32 32 31 34 34 34 30 25 18 14 14 5 4 4 9 6 7 13 16 16 15 13 13 10 8 8 6
31 31 31 33 36 37 39 38 29 15 11 14 11 5 4 4 8 14 17 17 18 17 13 9 6 4 16
30 28 27 27 30 33 38 39 38 16 7 11 18 18 13 9 12 14 16 19 23 16 14 7 6 5 22
24 20 21 22 30 35 35 36 33 29 10 11 17 15 10 14 6 15 17 18 23 16 12 7 7 12 25
Wind_Direction
321 322 321 321 320 321 320 317 317 317 314 310 307 306 305 303 300 296 292 290 288 286 284 281 277 276 273
321 322 322 323 322 322 323 321 319 318 318 317 315 313 311 308 304 297 291 288 286 285 284 282 279 276 273
321 324 324 326 327 326 325 325 325 325 323 321 317 311 288 276 266 264 265 269 274 277 280 281 280 278 275
324 325 331 332 330 329 329 331 329 328 326 308 290 282 276 273 268 264 264 271 274 277 281 281 277 276 273
331 329 332 332 334 335 333 323 337 333 325 329 329 324 319 304 292 275 265 261 257 275 277 275 279 276 269
332 333 335 336 335 304 320 324 323 340 341 328 332 326 324 322 310 291 273 269 256 256 254 247 244 240 237
334 336 332 298 301 318 331 337 329 331 334 322 336 324 327 324 297 272 265 268 257 254 249 245 243 241 240
338 334 313 294 320 331 313 305 325 336 339 326 334 317 323 306 278 269 268 263 256 253 250 247 244 242 239
343 299 290 316 335 330 331 328 322 339 341 335 337 328 312 288 285 279 265 264 263 259 254 250 250 250 247
348 347 343 345 344 348 339 332 329 332 356 353 343 355 3 355 358 280 273 269 268 266 262 263 260 264 259
352 350 353 353 353 353 350 346 332 331 322 331 352 345 4 303 296 295 290 290 292 291 290 277 266 262 263
355 354 354 355 354 354 348 349 340 326 315 312 341 343 319 298 299 315 314 325 332 307 289 283 283 276 263
352 353 354 355 355 358 359 358 354 344 348 317 334 327 292 290 304 321 333 355 332 308 297 315 307 303 291
351 351 354 353 354 356 360 4 4 360 17 342 323 340 294 307 334 339 353 2 332 320 314 317 310 347 50
354 353 354 355 353 352 345 345 4 8 318 297 295 310 303 299 9 13 351 351 328 320 325 336 350 24 106
356 357 358 0 360 358 346 332 333 300 342 292 298 304 308 56 52 19 359 2 332 329 330 360 23 70 114
2 4 4 3 360 355 352 318 312 304 293 284 292 295 303 308 40 40 353 353 341 343 345 17 58 105 119